Location: Unspecified
(42.2730°N, 83.7130°W)
Time: 14:20:24
(UTC+00:00)

Cosmos 1825 Rocket - Pass Details

Date: 14 December 2025
Orbit: 597 x 624 km, 82.5° (Epoch: 17 January)

Event Time Altitude Azimuth Distance (km) Brightness Sun altitude
Rises 22:55:58 0° 351° (N) 2,872 6.8 -9.5°
Reaches altitude 10° 22:58:12 10° 352° (N) 1,959 6.0 -9.9°
Maximum altitude 23:02:32 88° 270° (W) 607 3.5 -10.7°
Drops below altitude 10° 23:06:48 10° 174° (S) 1,931 6.3 -11.4°
Sets 23:08:59 0° 174° (S) 2,826 7.1 -11.8°
